Location: Davidschlag
(48.4333°N, 14.2833°E)
Time: 21:02:24
(UTC+00:00)

Cosmos 2263 Rocket - Pass Details

Date: 27 February 2020
Orbit: 822 x 850 km, 71.0° (Epoch: 29 March)

Event Time Altitude Azimuth Distance (km) Brightness Sun altitude
Rises 20:36:56 0° 333° (NNW) 3,418 6.1 -37.8°
Reaches altitude 10° 20:39:26 10° 337° (NNW) 2,482 5.2 -38.2°
Enters shadow 20:41:33 23° 344° (NNW) 1,735 4.2 -38.4°
